Wind_Speed
17 10 12 13 14 17 18 18 17 17 17 16 13 13 14 12 12 16 14 19 20 15 13 17 17 14 13 11 12 14 15 14 12 15 17 18 17 16 16 16 17 14 11 11 12 12 11 11 10 9 9 9 11 11 10 9 7 6 5 5 4 3 3 3 3 3 4 5 5 5 6 7 8 8 9 11 12 13 13 14 15 16 17 18 19 20
17 12 15 18 17 19 20 19 17 19 21 17 13 12 13 13 12 15 15 21 19 14 13 17 14 14 14 12 13 13 12 10 12 13 14 17 16 13 17 18 17 14 11 12 13 12 10 10 8 7 8 8 9 9 8 9 8 7 5 4 3 3 3 4 5 6 7 7 8 8 9 8 8 9 9 11 12 13 15 15 16 17 17 17 18 18
14 14 18 20 18 18 18 19 18 20 21 16 12 10 10 12 12 13 17 22 18 11 12 16 11 11 12 10 10 11 9 8 12 13 10 12 15 22 24 20 17 15 12 13 13 12 11 11 9 7 8 8 8 7 6 6 6 6 6 5 4 3 4 5 6 6 7 7 8 9 8 8 8 9 9 10 12 14 15 15 16 17 18 18 18 18
12 13 18 19 18 19 19 20 19 18 16 14 13 10 10 13 12 11 14 21 18 11 12 16 11 9 9 9 9 11 10 9 11 12 13 20 23 27 24 17 16 15 12 12 13 12 12 12 10 8 9 9 8 8 7 6 5 5 5 4 4 4 3 4 3 3 4 5 6 6 6 6 6 5 6 8 10 13 13 13 15 16 17 18 18 18
13 14 18 20 20 21 20 19 19 14 11 14 16 13 11 14 16 13 11 17 18 13 15 15 11 7 9 10 9 10 10 9 9 10 16 22 22 23 21 15 13 14 12 12 14 13 12 13 12 11 10 9 8 8 8 7 7 7 5 4 3 2 1 1 2 3 3 2 2 3 4 5 6 6 6 9 10 12 14 15 16 17 17 18 18 18
14 16 20 21 20 22 21 17 18 15 10 13 16 17 13 15 20 16 13 13 12 11 14 13 9 6 10 12 11 9 9 10 9 8 12 16 17 21 22 17 14 15 13 13 14 13 13 13 12 12 11 10 10 10 9 9 10 9 9 9 7 6 5 3 0 0 1 1 1 1 3 5 6 8 8 10 11 13 15 17 18 19 19 18 18 19
12 18 20 21 21 22 20 16 18 19 11 10 13 17 18 17 20 16 15 12 9 9 13 14 9 6 9 12 13 12 11 13 11 9 11 12 13 17 21 19 18 18 16 15 15 14 14 14 13 13 12 11 11 10 10 11 11 11 10 9 8 6 6 5 4 3 2 2 2 3 4 5 7 8 9 10 12 14 15 16 18 19 19 18 17 18
13 20 20 21 22 19 17 14 17 20 13 9 13 17 20 19 19 17 17 12 9 9 12 16 12 7 8 11 15 16 14 13 11 10 13 14 15 18 19 19 19 19 17 18 18 17 16 15 14 13 12 12 11 10 9 10 10 9 8 7 6 5 4 5 4 3 2 3 3 4 5 6 8 9 10 10 12 14 15 16 17 18 18 17 17 17
15 19 20 22 20 15 15 15 17 19 14 11 14 17 19 18 18 15 16 11 10 10 10 14 14 7 7 11 15 17 16 14 12 11 13 16 17 17 17 17 18 18 17 17 18 17 17 15 14 12 11 10 9 8 9 8 7 6 5 6 4 3 2 2 2 2 2 3 4 5 6 8 9 10 10 11 12 13 14 16 17 17 17 17 17 16
14 18 20 20 17 13 15 17 18 20 14 14 16 16 17 18 16 13 14 11 11 10 10 14 16 9 6 10 13 14 14 13 10 10 12 15 17 16 16 16 16 17 17 16 17 16 15 14 13 11 9 8 7 6 6 5 3 4 4 4 3 2 2 2 2 2 3 3 3 5 7 9 11 11 12 12 12 13 14 15 15 14 16 16 15 13
15 20 20 16 15 14 16 18 19 19 16 17 17 14 14 15 12 10 11 10 8 8 12 17 18 13 8 8 10 10 11 14 11 10 11 14 16 16 16 15 15 16 15 15 16 15 14 13 11 10 9 7 6 5 4 4 3 4 4 3 2 2 5 6 5 5 6 5 4 5 6 8 10 11 13 13 13 14 13 14 14 13 14 16 14 11
17 18 16 15 19 19 17 18 18 17 19 17 13 9 10 10 8 9 9 9 6 7 13 18 19 17 10 7 11 10 11 17 14 12 13 14 15 15 15 15 14 14 14 14 14 14 13 12 11 10 9 7 6 5 5 4 4 4 3 2 3 4 3 4 6 7 8 8 7 7 7 8 8 9 11 13 14 15 15 14 14 13 13 14 13 12
16 15 13 16 24 23 16 14 14 15 17 15 12 9 10 8 6 7 9 8 7 9 14 17 17 16 9 5 11 14 17 18 15 16 17 16 16 17 15 14 13 13 14 14 13 13 12 12 11 10 10 9 8 8 8 7 6 5 6 7 7 8 7 4 4 5 7 8 8 8 9 9 9 9 10 12 14 15 16 16 16 16 14 13 13 14
12 14 18 18 17 19 16 12 12 13 15 14 12 10 10 9 7 8 9 8 8 9 13 16 15 11 5 4 3 10 19 20 20 22 21 19 18 18 16 14 14 14 14 14 13 13 13 12 11 10 11 10 9 9 8 8 8 7 7 9 9 9 10 10 8 7 5 5 5 6 7 7 8 10 9 10 13 15 16 17 18 19 18 16 15 15
13 12 17 17 12 16 19 16 14 13 13 14 12 12 11 9 7 7 9 9 10 11 12 14 9 2 4 6 9 14 21 24 25 24 22 20 18 19 17 14 14 14 13 14 13 14 13 12 12 11 10 9 8 8 9 9 8 7 8 9 10 11 12 11 10 10 9 8 7 6 6 7 8 8 8 9 11 14 16 18 18 20 20 20 18 17
15 12 14 17 15 18 20 18 16 16 12 11 12 11 10 11 9 5 6 7 6 7 8 7 3 4 5 8 12 16 19 22 23 22 21 19 17 18 17 14 14 14 13 14 14 13 13 12 12 11 10 9 8 8 10 10 9 9 11 11 9 9 9 8 8 9 10 11 12 10 9 9 9 9 6 7 11 13 16 19 20 20 21 21 21 20
13 11 15 18 17 20 21 19 18 16 11 8 11 12 11 14 11 4 5 4 2 3 4 5 5 5 4 5 10 13 14 16 17 19 20 19 17 17 16 13 13 13 13 13 13 12 12 12 12 11 10 9 8 9 10 10 10 10 10 9 6 6 7 8 8 8 9 11 11 11 11 11 11 10 8 7 10 13 16 19 20 20 19 19 19 20
11 9 15 21 19 21 24 22 20 18 14 9 9 12 11 12 11 5 5 5 2 5 4 8 10 9 5 3 7 13 13 13 13 16 18 18 17 16 15 14 13 14 13 12 12 11 11 11 10 9 9 8 8 8 9 9 10 9 8 10 13 12 12 12 11 10 10 9 10 11 13 13 12 11 9 9 11 12 15 17 17 17 16 16 15 17
12 8 12 20 20 19 22 20 16 17 20 15 10 12 10 8 10 7 5 6 7 8 4 10 13 10 6 6 10 14 15 14 14 14 15 16 16 16 16 15 13 13 12 11 11 10 10 10 9 9 8 8 8 9 9 10 9 10 10 10 13 16 15 14 13 14 13 12 11 12 13 13 13 12 11 12 12 13 14 14 15 15 14 15 14 14
10 7 7 17 19 16 15 13 11 13 18 17 12 12 9 7 8 7 5 6 7 8 6 7 9 6 5 10 16 18 17 17 16 14 14 15 17 16 16 15 13 13 12 11 10 10 10 10 10 10 9 9 10 10 10 10 10 12 13 11 10 15 15 15 16 17 17 17 16 15 14 14 14 13 12 12 13 13 13 13 14 14 14 15 15 15
7 6 6 12 17 14 11 11 13 14 14 13 11 12 10 7 7 8 8 7 8 7 6 6 6 4 3 8 17 21 19 18 17 14 13 17 18 17 15 15 14 13 12 11 11 10 10 10 11 11 10 10 10 11 11 11 11 11 12 12 13 14 14 16 18 18 18 18 18 19 18 17 16 14 13 13 13 13 13 13 13 13 14 15 15 15
5 5 6 9 12 12 12 15 17 18 17 14 11 11 12 10 9 10 9 9 8 7 6 6 5 4 2 0 10 18 18 17 20 18 16 18 20 18 16 16 14 13 12 11 10 10 10 11 11 11 11 10 11 11 11 11 12 12 10 10 13 15 16 16 16 16 17 18 18 18 18 18 17 16 15 15 14 15 14 13 13 13 13 14 15 16
3 3 6 8 10 13 16 18 18 19 19 16 12 12 12 11 9 8 7 8 8 8 8 6 4 4 4 5 4 12 15 19 23 23 20 19 20 19 17 16 15 13 11 11 10 10 10 11 11 11 11 10 11 12 12 11 12 13 12 12 14 15 15 13 14 16 17 18 18 18 18 18 18 20 20 19 17 17 17 15 14 13 13 14 14 15
3 3 7 7 8 11 16 18 17 18 16 14 14 13 11 11 11 9 5 4 5 7 7 3 3 3 4 7 7 14 20 22 23 23 22 20 19 19 18 17 15 13 12 12 11 11 11 11 11 10 10 11 11 12 12 12 12 13 14 14 15 14 13 14 16 16 16 17 18 20 21 20 19 20 22 22 20 19 19 19 18 16 15 14 14 14
5 6 9 8 7 9 11 13 14 15 13 10 12 13 15 16 16 11 6 3 2 6 7 2 4 4 4 5 10 18 20 19 20 22 22 20 19 19 18 17 15 14 13 13 12 12 12 12 11 11 11 11 11 12 12 13 13 14 15 15 14 14 15 16 17 17 15 15 17 20 22 23 21 20 20 22 22 21 21 21 20 18 18 17 15 15
8 6 8 8 8 9 10 10 10 12 11 10 13 18 20 19 16 10 6 4 3 6 7 4 7 7 7 7 11 17 17 16 19 21 20 20 19 19 18 17 16 15 15 14 13 13 12 13 12 12 12 12 12 13 13 13 14 14 14 15 16 16 17 17 17 16 16 16 17 19 21 23 22 21 23 23 22 22 21 21 20 19 19 18 16 14
5 6 8 10 10 9 10 12 13 14 13 12 17 21 20 17 15 10 5 5 5 5 2 7 14 15 11 11 13 16 16 16 17 19 20 20 20 19 18 17 16 16 15 14 14 13 14 14 13 13 13 13 13 13 14 14 14 14 15 16 17 16 17 18 17 17 17 18 19 20 21 22 22 22 23 23 22 22 22 22 21 20 20 19 17 15
4 7 11 11 10 8 11 16 19 19 19 18 19 21 19 17 17 11 6 6 7 4 1 7 19 20 15 14 17 17 17 16 16 19 20 20 20 19 18 18 17 16 15 14 14 14 14 13 13 13 13 14 14 14 14 14 15 15 16 17 17 16 16 17 17 17 18 19 20 21 21 22 22 22 22 22 23 23 22 23 23 22 21 20 19 18
4 6 7 5 8 7 10 15 19 21 20 17 16 15 16 17 17 12 6 5 3 4 6 11 18 19 15 14 15 16 16 17 18 20 20 20 20 19 19 19 18 16 16 15 14 13 12 12 12 13 14 14 15 15 15 15 16 17 18 18 18 17 17 18 18 18 17 18 20 21 21 21 22 23 23 23 24 25 24 25 25 23 21 20 20 19
5 5 7 4 7 6 11 15 18 19 17 17 17 15 15 17 10 1 5 11 14 14 16 18 18 15 11 10 11 14 18 20 21 22 21 21 21 20 19 19 18 17 16 15 14 13 12 12 12 13 15 16 16 16 16 16 17 18 18 19 18 18 19 18 18 18 18 18 20 20 20 21 22 23 24 24 24 25 26 26 26 25 23 20 19 19
3 3 6 6 3 3 11 12 13 15 16 17 14 6 3 7 11 14 14 15 17 18 20 22 18 11 9 10 14 18 21 22 22 22 22 21 21 21 20 19 18 17 15 14 13 13 12 13 14 15 16 17 17 17 17 17 17 17 18 18 18 19 19 17 16 17 19 19 19 20 20 21 21 23 24 24 24 24 26 27 27 26 24 23 21 19
1 1 2 5 4 5 6 3 5 6 9 6 6 11 12 9 12 13 11 12 16 20 20 18 13 8 10 14 16 18 20 21 20 20 20 20 20 21 20 19 18 16 15 14 13 13 13 14 15 16 17 17 17 17 17 17 17 18 18 17 18 19 18 16 17 18 19 19 19 20 20 20 21 22 24 24 24 24 26 27 28 27 27 27 26 24
6 4 1 4 4 6 5 7 7 1 8 8 8 9 10 13 13 12 12 12 14 16 13 9 9 10 13 16 16 15 15 16 17 18 18 19 20 20 19 19 18 15 14 14 13 13 13 13 15 17 17 17 17 16 17 17 17 17 17 17 18 19 17 16 18 19 18 19 20 20 20 20 21 22 23 24 24 25 26 27 28 30 30 30 30 28
8 7 2 3 4 4 8 7 3 2 7 4 4 5 6 12 13 13 14 12 11 10 9 11 14 15 14 15 16 15 12 14 18 18 18 19 20 21 19 18 16 15 14 14 14 14 14 15 17 18 16 15 14 14 14 15 17 16 15 15 16 17 18 17 17 19 19 20 21 20 20 21 21 22 23 23 25 26 27 28 29 31 31 31 31 31
8 7 1 1 2 2 6 5 4 3 2 2 4 6 12 16 16 17 17 14 13 14 17 20 19 17 16 18 21 21 20 21 22 19 18 18 19 20 19 17 16 14 14 14 14 16 17 18 17 15 13 13 14 13 9 10 13 13 11 14 16 16 16 17 17 19 20 21 21 21 21 21 22 23 23 24 25 26 27 28 28 29 30 30 30 31
7 7 3 2 1 3 4 3 4 3 1 0 4 10 15 15 12 12 13 13 11 12 16 20 19 19 22 25 26 26 26 27 24 20 18 18 18 19 18 17 15 14 14 14 14 16 16 15 15 14 13 13 14 14 11 11 12 11 11 16 18 15 15 16 17 19 20 21 22 22 22 22 22 23 24 24 25 26 26 27 26 27 28 28 28 28
9 6 5 3 0 3 4 1 2 3 3 3 6 8 8 7 5 6 8 8 8 10 15 18 19 20 23 25 27 28 28 25 20 15 15 16 17 18 18 17 16 14 14 13 12 13 12 11 13 14 14 13 13 14 14 13 13 13 14 17 17 15 15 17 17 18 19 20 21 22 23 23 23 23 24 25 25 26 27 26 26 27 27 27 27 27
11 6 5 5 3 4 5 3 2 3 2 4 6 6 5 7 10 12 9 5 6 12 16 17 17 19 22 23 26 26 22 15 9 8 13 16 17 18 18 17 16 14 14 13 12 12 12 11 12 13 13 13 13 14 14 13 14 14 15 15 15 15 16 17 17 18 18 20 21 21 22 24 24 24 24 24 24 23 24 25 27 28 26 25 26 26
13 7 3 4 4 6 6 4 4 2 1 3 8 8 6 8 11 11 6 3 7 14 17 17 17 19 21 23 24 20 12 6 4 9 16 18 18 19 19 17 16 14 14 13 12 12 12 12 13 13 13 14 14 14 13 14 14 14 15 15 15 16 17 17 17 17 18 19 20 21 22 23 24 26 26 26 26 25 24 24 26 26 26 25 25 26
9 6 3 4 4 6 5 3 4 3 3 3 8 9 7 6 7 6 3 4 12 17 19 20 20 20 21 23 20 10 3 5 10 15 19 19 18 19 18 17 16 15 14 13 13 13 13 13 13 14 14 14 14 13 13 13 14 15 15 15 15 16 17 17 17 17 18 18 19 21 22 22 23 25 26 26 27 27 25 25 25 25 25 26 25 26
4 3 5 5 4 6 6 5 4 3 3 4 7 8 7 5 5 5 2 8 18 22 21 21 22 22 21 19 12 5 9 16 21 23 23 21 20 20 18 17 16 15 14 14 14 14 13 13 14 14 15 15 14 14 14 14 14 15 15 15 16 16 16 16 16 16 17 18 19 20 22 22 22 23 24 24 25 26 26 23 23 24 25 25 25 25
2 2 5 4 3 4 5 5 5 4 1 1 4 6 3 2 3 2 7 16 24 24 22 22 23 22 19 15 15 20 26 29 28 26 24 22 21 20 19 18 17 15 15 15 15 15 14 14 14 15 15 14 14 14 14 14 15 15 15 16 16 15 15 15 16 16 16 17 18 19 21 24 24 24 24 23 23 29 32 29 25 24 24 24 25 25
2 2 4 2 1 3 5 4 4 4 1 2 3 4 1 1 5 12 18 23 24 24 24 24 22 20 20 22 26 29 32 31 28 26 25 23 21 20 19 18 18 16 16 16 15 15 14 14 14 14 14 14 14 14 14 14 15 15 16 16 15 15 15 15 15 16 16 17 18 18 19 22 24 25 25 23 23 28 35 35 32 31 29 27 28 29
5 3 2 2 3 1 5 3 2 5 5 3 4 6 7 10 16 22 23 23 23 24 25 23 21 21 25 29 30 29 30 30 28 26 25 23 21 20 20 18 18 17 17 16 15 14 14 14 13 13 14 14 13 13 14 14 14 15 15 15 15 15 15 15 15 16 16 17 18 18 18 18 19 21 23 23 22 25 32 35 36 35 34 32 32 34
4 5 7 6 4 4 5 5 6 9 10 10 12 15 18 20 21 22 23 25 25 24 22 22 23 25 27 30 31 30 29 28 27 26 25 23 22 21 20 19 18 18 17 16 15 14 14 14 14 14 14 13 13 13 14 14 14 15 14 14 14 14 15 15 16 16 16 16 16 17 17 16 16 18 21 22 21 22 27 33 35 35 35 35 34 35
10 13 12 9 8 9 9 8 11 13 14 15 18 20 20 20 20 22 24 25 24 22 22 24 26 27 28 29 30 29 28 28 27 26 24 23 22 21 20 19 18 18 17 16 15 15 14 14 14 14 13 13 13 13 13 14 14 14 14 13 13 14 14 14 15 16 16 16 15 16 17 15 15 19 21 22 22 22 25 29 33 34 35 35 34 35
11 13 11 8 8 7 6 7 11 13 15 18 20 20 21 20 20 22 23 23 23 23 24 26 28 28 28 27 28 29 29 27 27 26 24 24 23 21 20 20 18 18 17 16 15 14 14 14 14 14 14 13 13 13 13 14 13 13 13 12 12 13 13 14 14 14 15 15 15 16 17 16 17 19 21 22 23 24 25 28 31 33 34 34 35 35
9 12 10 8 8 8 8 10 14 16 18 19 19 20 21 21 20 21 22 23 25 26 26 28 29 28 28 28 29 30 29 27 26 26 25 23 23 21 20 19 18 17 17 15 14 14 14 14 14 13 13 14 13 13 13 13 13 13 13 12 12 12 12 13 13 14 15 15 14 14 15 16 16 18 19 21 23 24 25 27 29 30 31 33 33 33
11 11 9 9 11 10 9 13 17 16 16 16 18 19 20 21 22 23 25 26 28 29 29 28 27 27 29 29 29 30 29 26 25 25 25 23 22 21 20 19 18 17 16 15 14 14 14 14 13 13 13 13 12 12 13 13 13 12 12 11 11 11 12 13 13 13 14 15 15 14 15 15 15 16 17 19 22 23 24 26 27 28 29 30 30 30
11 10 9 10 10 7 8 13 14 11 10 14 19 21 20 22 24 26 27 28 28 29 30 29 28 27 28 28 28 28 28 27 25 25 25 23 22 22 20 19 18 17 16 15 15 15 14 14 13 13 13 13 12 12 12 12 12 12 12 12 11 11 12 13 14 13 14 15 16 16 15 15 15 16 16 17 19 21 22 24 25 26 27 28 29 28
8 5 5 6 7 9 15 18 16 14 14 18 21 22 22 24 25 26 27 28 27 27 29 31 31 29 28 27 26 26 27 27 26 25 24 23 22 21 20 18 18 17 16 15 14 14 14 14 14 13 12 11 11 11 11 12 12 12 11 11 11 11 12 15 15 13 13 14 16 16 16 16 17 17 16 16 16 18 20 22 24 25 26 27 28 27
Wind_Direction
199 201 204 208 208 205 211 218 219 227 230 223 208 209 224 223 220 225 195 164 185 201 193 211 216 187 175 180 180 178 186 195 175 154 162 172 176 170 160 149 134 126 122 117 115 114 109 107 110 111 111 117 117 114 116 118 115 119 129 134 137 154 179 197 221 237 235 234 238 238 240 249 253 254 256 258 266 272 272 268 265 261 257 258 259 253
197 209 212 208 210 207 209 216 219 229 240 238 219 209 219 225 225 220 181 158 184 203 195 210 206 172 175 186 178 172 184 186 162 166 178 179 176 147 122 116 114 114 113 114 115 112 105 102 109 115 110 112 111 107 114 118 112 107 112 123 132 170 218 226 233 240 242 239 233 234 237 238 239 243 252 260 266 270 273 275 272 267 263 261 259 252
202 215 213 206 210 212 210 213 217 228 239 246 236 212 214 224 224 212 176 160 181 205 193 197 183 154 169 175 158 164 182 164 157 176 172 151 131 107 106 112 116 115 105 104 107 105 100 94 94 94 91 92 93 93 102 111 118 121 124 131 136 155 194 212 220 227 232 230 230 239 245 244 246 248 252 260 267 274 281 284 280 277 274 270 264 254
205 212 209 205 208 211 213 210 212 225 233 243 245 220 212 219 219 212 180 167 178 200 200 184 162 146 159 158 161 172 171 151 167 172 112 98 106 107 115 127 123 119 110 103 102 98 97 93 89 86 82 83 84 82 83 94 114 122 131 151 164 177 195 212 227 238 241 235 234 249 268 272 278 279 270 272 277 283 289 291 288 286 283 278 272 262
210 204 202 206 206 208 215 210 206 220 226 232 243 238 214 207 222 222 180 168 172 198 218 188 153 156 169 169 170 162 153 140 157 157 109 98 106 107 112 126 132 128 118 106 101 97 97 94 90 87 84 81 73 68 70 79 92 91 85 85 95 115 119 186 222 240 257 258 244 276 315 328 324 322 312 301 297 294 295 298 300 297 290 283 277 267
213 201 196 205 206 205 213 211 205 213 221 224 233 243 228 203 220 217 170 166 174 198 216 181 148 168 177 179 171 153 160 153 139 140 120 110 115 112 113 127 138 129 116 105 101 97 95 93 92 90 87 83 68 61 64 69 73 68 60 59 51 40 42 44 23 283 300 26 52 334 322 319 306 302 297 294 292 288 291 298 300 297 294 289 281 270
212 202 194 203 206 203 211 213 205 208 218 224 215 234 239 218 217 202 160 172 192 202 196 170 168 177 175 190 174 157 166 160 155 157 138 120 117 115 117 124 124 119 113 105 100 100 99 98 99 97 93 90 79 69 69 70 71 68 63 61 52 36 25 21 31 42 34 40 15 325 305 293 290 288 285 285 285 286 292 296 296 295 296 293 284 273
206 203 193 201 205 200 209 212 203 204 214 220 200 220 239 230 220 193 161 180 204 207 192 172 180 180 180 196 174 168 174 160 160 164 140 118 101 98 105 111 111 109 107 102 99 102 104 101 98 96 93 93 89 84 84 77 72 70 66 65 59 48 26 14 24 36 21 17 345 318 311 303 297 292 290 291 291 295 299 299 299 300 298 291 282 275
201 206 194 196 205 201 206 210 201 202 215 221 203 215 234 237 234 198 162 182 203 209 211 185 185 190 191 190 170 174 179 161 156 152 131 118 106 98 99 100 97 97 97 96 97 99 101 99 96 96 99 102 101 100 98 88 78 77 79 79 75 73 67 29 10 18 345 326 320 319 320 313 304 296 294 295 297 301 302 303 306 307 303 295 284 278
197 209 202 194 204 206 202 206 206 201 209 225 211 208 225 237 243 212 172 182 199 209 225 203 192 196 198 184 174 179 178 164 152 136 120 114 111 105 101 98 94 93 91 90 94 97 98 95 95 99 106 111 114 117 116 112 116 124 125 119 118 162 176 190 220 214 232 266 298 306 305 304 298 294 296 298 297 299 302 305 308 309 309 304 292 282
192 205 214 199 200 209 201 203 213 202 199 225 223 203 217 232 243 230 191 181 196 211 226 216 202 200 204 181 180 189 171 153 139 126 121 115 112 108 101 96 92 91 91 89 90 91 90 87 87 90 93 95 100 111 120 115 107 116 137 149 147 215 214 212 229 226 223 238 258 273 282 290 295 298 300 300 299 299 300 303 305 304 307 307 298 286
195 198 216 201 194 206 205 201 211 201 194 221 233 204 208 224 238 235 196 178 198 211 218 217 207 210 217 184 185 185 139 132 136 135 133 126 118 110 98 94 93 93 93 92 89 88 87 84 79 77 75 71 66 59 58 60 52 50 52 53 31 344 273 231 239 238 231 235 242 258 270 275 290 303 305 303 302 303 302 298 296 292 292 297 295 285
202 193 207 202 194 201 203 196 203 198 193 214 231 210 202 208 222 217 185 184 210 216 217 209 201 212 217 167 179 170 134 128 140 140 135 130 121 109 99 96 97 96 93 92 90 87 86 83 78 73 69 59 46 39 32 28 30 27 24 28 21 358 343 330 295 263 245 242 247 265 276 274 277 290 303 307 307 306 302 296 290 286 285 287 290 290
202 194 204 206 195 197 201 194 197 196 193 208 218 208 200 198 205 197 181 193 209 220 224 207 197 207 187 78 70 135 129 126 131 132 127 123 118 109 105 103 99 95 93 92 91 88 84 81 77 71 67 58 45 40 32 23 21 21 27 27 19 5 356 354 346 327 305 288 278 281 293 295 285 279 283 296 304 303 299 295 289 284 282 282 285 288
199 194 197 197 180 189 206 208 199 196 199 207 211 209 205 204 210 195 185 197 201 209 216 202 198 206 126 97 60 87 106 110 114 119 115 112 113 110 109 107 102 98 98 96 92 87 82 77 73 67 60 57 50 43 39 30 18 17 30 28 25 17 2 353 347 338 335 336 333 325 319 321 316 301 284 281 292 297 296 296 291 284 281 281 281 282
205 200 191 194 185 185 205 216 201 193 199 206 209 211 204 207 214 204 209 222 210 207 204 182 159 41 89 108 90 89 98 105 111 114 112 110 112 112 110 110 108 105 103 98 91 85 81 76 71 64 55 50 45 42 41 34 23 27 31 24 23 18 351 335 339 343 351 353 345 341 335 330 329 330 316 284 284 294 298 298 297 294 288 283 281 281
203 195 183 195 201 193 200 215 207 196 196 198 210 211 202 209 213 192 221 250 328 239 197 115 104 102 106 113 111 110 108 112 116 115 114 115 116 115 114 115 112 108 104 97 90 84 77 72 68 63 56 49 42 44 44 35 29 36 37 18 1 356 340 335 346 359 7 359 344 340 343 342 340 343 345 318 299 303 310 309 307 306 302 294 286 281
205 193 177 190 207 198 197 213 217 205 198 198 206 202 198 216 218 193 202 209 209 236 193 121 134 149 152 157 139 132 125 123 125 119 118 122 122 119 119 120 115 109 104 94 87 80 72 69 68 63 59 53 49 48 47 43 33 30 30 9 356 358 358 354 358 7 9 354 340 343 349 348 345 345 347 336 318 315 321 322 318 314 311 308 300 288
213 203 175 188 202 193 191 212 222 204 204 215 206 190 193 218 214 192 197 203 202 221 191 132 147 164 172 167 157 152 144 137 133 130 129 130 129 126 125 124 117 108 100 91 84 77 72 70 68 67 61 55 54 49 47 47 34 29 40 29 2 356 1 7 10 10 5 355 350 354 354 347 343 343 342 336 328 326 331 332 328 324 320 317 313 304
216 214 178 188 198 189 184 208 218 194 202 219 210 195 206 224 213 197 193 207 208 211 197 151 158 183 175 161 166 165 154 145 141 140 138 133 130 129 127 124 116 107 100 93 86 78 75 73 69 68 64 57 55 51 47 44 34 37 52 47 2 345 357 16 22 15 6 0 358 357 356 352 348 346 342 335 331 329 330 331 329 328 327 323 319 313
213 214 183 187 197 194 185 203 212 195 192 207 202 194 206 217 221 214 200 206 218 215 197 170 167 172 144 162 171 165 155 147 143 140 136 132 130 129 127 121 114 106 99 92 87 81 78 75 70 68 64 59 55 52 48 44 37 38 47 38 8 357 13 27 27 18 5 0 2 360 357 357 354 353 350 342 336 329 324 322 321 323 326 326 323 319
204 201 180 184 194 197 196 202 210 203 194 201 205 199 205 210 214 216 206 203 215 222 210 189 163 125 55 323 166 159 154 147 139 135 132 130 128 126 122 117 109 104 100 93 91 89 83 79 75 71 67 62 56 53 50 44 38 35 39 35 20 18 27 29 28 22 5 359 3 359 355 356 353 354 356 351 346 340 335 329 319 314 314 314 316 316
195 194 175 188 195 198 198 199 210 213 199 198 211 212 209 210 215 219 211 200 206 222 220 197 142 105 41 15 113 140 139 135 133 131 129 128 128 124 118 111 105 105 104 102 100 95 88 85 81 76 70 64 59 55 52 46 40 35 33 33 28 25 25 26 33 29 9 1 360 355 358 359 355 358 357 352 353 349 342 342 335 324 316 309 307 309
181 183 167 187 205 207 203 195 206 222 212 198 206 215 215 212 216 224 228 203 199 220 219 170 107 114 51 39 95 117 118 123 128 128 126 126 125 120 114 110 110 112 111 107 104 98 92 90 85 79 72 64 59 56 52 48 44 38 35 36 32 26 24 29 33 26 13 9 2 358 2 1 2 9 356 343 349 350 343 345 345 341 335 325 318 316
174 184 170 182 194 203 204 190 194 217 225 212 202 214 223 215 211 218 229 222 206 226 221 141 96 137 103 78 114 119 119 125 128 127 127 125 123 119 115 117 119 118 113 108 103 98 92 89 85 78 71 64 60 56 52 48 44 40 37 36 32 25 25 29 28 18 12 13 7 3 5 2 6 12 355 342 347 349 346 347 347 344 340 334 329 325
171 181 174 187 189 190 196 186 187 203 214 211 203 211 221 219 216 214 199 191 202 221 217 152 112 125 117 110 123 124 125 128 128 129 128 124 123 122 122 125 123 118 114 108 102 96 90 86 83 77 69 64 60 56 52 48 45 42 38 35 34 28 23 26 26 18 12 11 9 8 8 5 6 5 356 352 353 350 348 350 348 345 341 336 332 325
167 184 190 206 203 194 201 196 192 197 203 207 205 207 214 223 232 228 200 198 199 196 194 128 130 135 140 142 139 133 130 129 129 130 126 124 125 127 128 127 123 119 114 107 100 95 90 86 80 74 66 62 60 57 52 49 45 41 38 37 37 30 23 24 22 16 13 10 9 11 10 6 6 3 358 356 353 349 350 351 349 349 345 339 334 326
174 192 191 212 216 211 221 204 191 196 204 205 205 205 205 216 231 228 194 198 206 190 130 141 141 142 153 154 142 137 135 131 131 130 129 131 131 130 130 125 121 118 112 106 101 95 91 85 76 70 65 60 59 57 52 49 45 41 38 36 36 32 25 24 20 17 16 12 10 12 11 7 4 1 359 357 354 354 356 355 354 354 350 343 339 334
197 192 166 217 225 222 247 225 200 197 201 206 212 206 196 210 234 242 203 166 147 128 145 154 143 135 140 142 133 134 135 130 130 132 133 134 132 131 129 124 121 117 109 104 100 94 88 81 73 67 63 59 56 56 53 48 43 40 37 34 33 31 28 25 21 18 18 14 11 12 11 8 3 1 3 3 1 2 3 2 1 360 356 349 343 339
213 175 142 195 211 227 269 249 213 197 192 201 216 214 198 199 213 277 95 102 99 111 128 130 123 115 116 117 113 117 118 118 125 131 134 135 133 131 127 121 118 112 105 100 97 92 83 76 72 66 62 59 54 53 51 47 42 39 36 33 30 30 30 26 20 19 19 16 13 12 11 9 7 5 8 8 6 7 10 10 8 8 7 2 353 344
231 152 153 167 153 253 264 250 223 207 198 198 206 225 221 164 116 87 88 98 103 115 123 118 113 108 102 97 97 105 113 119 126 132 134 135 132 128 123 119 115 109 103 98 94 89 80 73 69 64 61 58 54 51 49 46 43 38 37 33 30 32 31 23 17 20 21 17 14 13 12 12 11 10 11 11 10 12 14 16 16 15 14 14 10 2
147 118 186 157 143 229 240 328 323 227 192 157 71 32 29 65 91 92 99 110 118 124 125 121 121 128 125 115 110 114 122 126 129 131 131 130 129 126 121 117 114 108 101 98 93 87 79 70 66 65 63 58 54 51 48 47 44 39 37 32 31 33 29 20 21 24 20 17 16 16 14 14 15 16 15 13 13 15 18 20 19 19 19 19 17 15
141 134 193 153 176 205 136 53 347 216 123 82 40 18 34 63 72 74 76 91 117 128 134 137 136 135 132 127 124 124 126 124 123 126 128 128 126 123 119 116 113 107 100 96 91 84 77 73 72 69 63 57 53 51 50 48 43 41 40 34 32 33 28 23 26 25 21 19 19 18 17 16 19 19 17 15 15 18 21 23 22 22 22 21 19 18
143 142 178 163 192 192 114 97 284 211 123 100 337 337 53 72 71 76 75 71 81 92 95 107 122 129 132 131 130 126 118 114 118 122 124 126 124 121 118 115 111 106 100 94 91 87 81 77 73 67 60 58 54 51 47 35 28 31 29 24 30 33 29 28 28 26 25 24 23 23 21 20 23 22 18 17 17 17 19 21 24 25 24 22 20 19
148 143 142 61 169 140 95 120 195 179 139 281 341 51 92 90 79 78 75 67 73 86 95 107 122 132 129 126 123 116 109 108 111 112 115 120 122 120 117 113 109 106 101 96 91 84 76 69 64 61 64 63 53 47 42 27 30 39 32 29 36 34 28 29 30 29 29 27 24 24 23 23 23 22 19 18 17 16 16 16 18 21 24 24 22 21
157 147 115 39 62 105 107 175 180 130 88 323 82 94 104 103 96 84 67 61 77 99 110 118 127 129 123 121 119 115 110 107 102 100 107 116 119 119 116 113 109 105 102 100 90 79 73 71 69 65 65 61 49 44 44 40 44 50 42 39 42 35 29 32 32 31 30 28 25 24 23 24 23 22 20 19 18 18 17 15 12 12 15 18 19 21
162 159 138 125 120 119 115 99 111 127 151 139 128 132 122 105 109 107 83 72 90 109 118 122 125 125 124 123 122 120 115 105 93 91 107 118 119 118 117 114 111 108 106 104 94 82 79 79 75 68 62 60 54 50 49 48 49 48 42 41 41 37 35 35 33 32 30 28 26 24 23 24 23 23 22 20 19 17 15 15 14 11 10 9 10 14
167 168 160 157 156 136 124 100 107 148 169 143 154 171 138 93 99 109 104 94 109 118 123 125 126 130 131 129 132 134 125 104 88 108 122 124 123 121 119 116 113 109 105 101 94 85 80 76 73 70 67 63 59 55 54 53 55 54 49 46 43 40 39 36 34 32 29 28 28 24 23 24 25 25 25 22 21 19 16 14 13 15 14 8 5 6
170 149 159 171 155 149 149 142 135 112 355 147 155 155 134 119 125 125 117 134 146 140 138 137 136 138 139 140 147 152 142 107 116 144 139 134 129 125 122 118 113 108 104 102 96 89 85 82 79 76 72 66 62 60 56 54 56 55 52 49 45 42 40 38 35 33 30 30 29 26 25 26 25 26 26 24 22 22 22 19 16 15 15 11 9 7
164 130 165 190 169 155 138 107 109 73 31 114 146 152 145 142 159 178 207 177 161 156 152 148 145 144 145 149 158 172 169 132 145 148 145 139 131 126 123 120 116 112 108 105 99 94 91 87 83 79 74 70 66 63 59 57 57 56 54 51 47 44 42 38 36 34 32 32 31 29 28 28 27 27 27 25 21 19 21 21 20 18 15 13 14 11
113 117 164 177 174 154 126 100 109 93 68 117 145 155 157 158 186 221 226 144 149 153 154 151 148 147 148 155 161 125 96 119 133 137 138 136 130 127 124 121 118 115 111 107 102 98 95 90 87 82 77 73 68 64 62 60 58 56 54 51 48 45 42 40 39 38 36 34 33 31 30 32 33 31 29 27 22 20 23 24 22 21 19 16 15 14
111 154 160 170 183 149 114 109 119 103 10 234 115 108 123 204 206 138 109 128 140 145 148 147 146 147 146 137 121 109 110 119 127 131 133 133 130 128 126 123 121 117 113 109 104 101 99 94 89 84 78 74 68 64 63 61 59 56 54 52 49 45 42 41 41 40 39 38 36 34 33 36 38 36 34 32 26 25 30 32 29 28 25 20 17 17
42 88 127 107 28 100 105 108 118 116 190 231 129 100 20 308 129 119 119 127 133 138 141 141 140 140 130 117 114 117 119 123 127 130 131 130 129 128 126 124 122 118 114 110 107 105 101 95 89 84 79 74 68 65 62 61 59 57 54 52 49 45 44 43 42 41 40 40 39 36 34 35 37 35 34 33 26 25 29 31 31 33 32 26 22 21
8 356 123 77 347 69 124 110 83 104 112 101 92 96 87 99 120 127 126 127 131 135 135 133 130 129 125 121 122 123 123 126 129 131 130 129 129 128 126 123 121 119 116 112 109 107 102 96 91 86 80 74 71 67 63 61 60 58 55 53 48 46 45 43 42 43 41 40 40 36 33 34 34 33 34 32 25 21 24 27 29 32 33 31 27 24
45 70 90 79 37 55 84 83 83 94 97 87 85 96 103 110 121 127 126 127 130 132 130 127 126 127 126 126 126 126 127 129 130 130 130 130 129 128 126 123 121 119 118 114 110 107 103 99 94 88 82 77 72 67 62 60 60 58 55 53 50 48 46 43 43 45 42 41 40 35 34 36 30 27 33 36 31 23 23 26 29 30 30 30 28 25
132 119 100 95 100 85 71 81 94 95 99 100 98 102 109 115 121 126 127 128 130 132 131 128 127 128 129 129 127 128 130 131 130 130 131 130 129 128 126 124 121 120 118 115 111 108 104 100 94 87 83 78 72 68 64 61 60 58 57 55 51 49 48 45 44 45 42 41 40 35 34 35 28 24 29 35 36 30 26 27 30 29 29 28 27 26
138 125 108 113 128 111 84 97 107 105 108 109 107 108 112 116 121 126 128 130 132 134 132 130 130 131 131 131 129 130 132 133 131 131 131 130 129 129 127 125 123 121 119 116 112 109 104 99 94 88 84 80 74 70 66 63 59 56 56 56 52 51 51 48 47 47 43 41 39 35 33 31 24 22 26 30 31 30 28 28 28 28 27 25 24 25
111 107 100 99 107 107 111 119 116 112 112 113 114 117 119 120 123 126 129 131 132 132 131 132 133 133 132 133 132 132 132 133 132 132 132 131 131 130 128 127 124 122 121 117 113 110 105 99 95 90 86 83 77 72 69 65 60 57 57 57 54 51 51 49 49 51 47 42 38 36 35 32 23 17 19 23 25 26 26 27 26 26 26 24 21 22
89 94 93 97 103 105 116 124 122 116 113 112 114 119 123 125 125 126 129 130 130 130 131 131 133 134 133 134 134 132 132 133 134 133 133 132 131 130 128 127 125 123 121 117 113 108 102 98 96 92 87 85 80 75 71 66 62 60 59 58 57 55 52 50 50 51 48 43 39 38 36 34 29 24 19 16 17 20 24 25 24 24 25 24 21 20
87 108 114 115 119 125 140 141 134 125 119 117 119 122 127 128 127 127 130 131 131 132 132 130 130 131 131 132 134 133 132 134 135 134 132 130 131 131 129 128 126 124 122 120 116 110 105 103 102 98 92 86 81 79 76 70 65 64 60 57 56 53 49 49 51 51 48 44 42 41 36 32 34 34 28 19 14 15 18 20 21 22 23 23 22 19
64 111 143 137 133 142 148 145 135 124 123 123 123 125 128 129 129 130 131 132 132 132 132 130 130 131 132 133 135 134 133 134 135 133 130 129 130 130 129 129 128 127 125 122 115 112 110 106 103 100 95 88 83 81 80 75 69 65 62 59 58 55 51 49 47 45 44 44 43 41 37 37 39 35 30 26 22 17 16 16 16 17 20 21 20 19
Height
1462 1464 1463 1461 1459 1459 1460 1458 1458 1457 1453 1451 1452 1456 1456 1453 1450 1444 1441 1445 1450 1457 1461 1460 1461 1462 1465 1465 1463 1465 1467 1468 1471 1477 1482 1485 1489 1493 1498 1503 1506 1509 1512 1513 1512 1513 1513 1513 1513 1513 1514 1515 1516 1517 1518 1519 1520 1521 1522 1523 1524 1526 1527 1528 1529 1530 1530 1531 1531 1532 1533 1533 1534 1534 1534 1533 1533 1533 1533 1533 1533 1533 1533 1532 1531 1531
1460 1462 1457 1455 1456 1456 1457 1457 1457 1456 1452 1449 1448 1451 1452 1450 1446 1437 1436 1443 1448 1455 1459 1456 1457 1461 1464 1465 1463 1464 1468 1469 1471 1477 1481 1483 1488 1493 1497 1503 1506 1509 1512 1513 1512 1512 1513 1514 1514 1514 1515 1515 1516 1517 1518 1519 1521 1521 1522 1523 1524 1525 1526 1527 1529 1530 1530 1530 1531 1532 1533 1533 1534 1533 1533 1533 1532 1532 1531 1531 1530 1530 1530 1530 1529 1529
1457 1454 1451 1452 1453 1453 1454 1454 1456 1455 1453 1451 1445 1446 1450 1446 1440 1435 1432 1440 1447 1453 1456 1455 1459 1464 1464 1464 1465 1467 1469 1470 1474 1478 1481 1484 1488 1493 1498 1503 1507 1509 1511 1512 1512 1513 1514 1514 1514 1515 1515 1515 1516 1517 1518 1520 1521 1522 1523 1524 1525 1526 1527 1528 1529 1529 1530 1530 1531 1531 1532 1532 1532 1532 1532 1532 1531 1530 1529 1529 1528 1527 1527 1527 1527 1527
1454 1449 1447 1450 1450 1452 1452 1451 1454 1454 1452 1452 1445 1443 1446 1441 1438 1437 1433 1437 1445 1449 1451 1454 1463 1468 1468 1469 1469 1470 1471 1472 1477 1480 1482 1486 1490 1494 1498 1503 1507 1509 1511 1514 1514 1514 1515 1514 1515 1516 1516 1515 1516 1517 1518 1519 1520 1521 1523 1523 1525 1526 1527 1527 1528 1528 1528 1529 1529 1530 1530 1530 1530 1530 1530 1529 1529 1528 1527 1527 1526 1526 1525 1525 1525 1525
1446 1444 1445 1447 1447 1449 1450 1449 1450 1453 1452 1450 1445 1438 1437 1436 1436 1434 1431 1435 1443 1449 1446 1449 1469 1477 1473 1475 1474 1471 1474 1476 1479 1482 1485 1489 1492 1495 1498 1503 1508 1510 1514 1515 1515 1516 1515 1515 1516 1516 1516 1516 1516 1517 1518 1519 1520 1521 1522 1523 1524 1525 1526 1526 1526 1526 1526 1527 1528 1528 1528 1529 1528 1528 1528 1527 1527 1526 1525 1525 1524 1524 1523 1523 1523 1523
1440 1439 1441 1444 1444 1445 1447 1446 1446 1450 1451 1449 1444 1435 1430 1433 1433 1428 1430 1437 1449 1458 1448 1449 1481 1491 1476 1475 1477 1475 1477 1480 1483 1485 1487 1492 1495 1497 1502 1507 1511 1513 1516 1516 1516 1516 1516 1515 1516 1516 1516 1517 1517 1518 1518 1519 1519 1520 1521 1522 1523 1524 1524 1525 1525 1525 1526 1526 1527 1527 1527 1528 1528 1527 1527 1526 1525 1525 1524 1523 1522 1521 1521 1521 1521 1521
1434 1434 1436 1440 1441 1442 1444 1443 1441 1444 1449 1448 1441 1434 1431 1429 1429 1428 1434 1444 1455 1460 1449 1448 1477 1492 1482 1475 1475 1477 1479 1482 1486 1487 1489 1495 1498 1500 1505 1510 1513 1515 1516 1516 1516 1516 1516 1516 1516 1516 1516 1517 1517 1518 1519 1519 1519 1520 1521 1521 1522 1523 1524 1524 1524 1524 1525 1526 1526 1526 1526 1526 1526 1526 1526 1525 1524 1524 1523 1522 1521 1519 1519 1518 1518 1518
1428 1429 1433 1436 1437 1439 1442 1441 1437 1438 1445 1444 1434 1434 1434 1427 1426 1428 1436 1448 1452 1451 1448 1448 1461 1481 1486 1476 1471 1476 1480 1484 1487 1488 1492 1499 1502 1504 1507 1510 1512 1514 1515 1515 1515 1515 1515 1515 1516 1517 1517 1517 1518 1519 1519 1519 1520 1520 1521 1521 1522 1523 1524 1524 1524 1524 1524 1525 1525 1525 1525 1525 1525 1524 1524 1524 1523 1522 1521 1520 1519 1518 1517 1516 1516 1516
1424 1426 1429 1432 1435 1436 1436 1435 1433 1435 1440 1436 1429 1433 1433 1428 1427 1426 1436 1449 1449 1452 1458 1451 1453 1476 1484 1471 1467 1474 1477 1485 1490 1491 1496 1501 1504 1506 1508 1510 1511 1512 1513 1513 1514 1515 1515 1516 1516 1517 1518 1518 1519 1519 1519 1520 1520 1520 1520 1521 1522 1522 1523 1523 1523 1524 1523 1524 1524 1524 1524 1524 1524 1523 1523 1523 1522 1521 1520 1519 1518 1517 1516 1516 1515 1515
1421 1423 1423 1427 1432 1431 1430 1430 1429 1432 1436 1431 1428 1431 1431 1430 1428 1426 1436 1445 1449 1461 1465 1451 1450 1473 1482 1467 1466 1474 1476 1486 1495 1496 1500 1503 1505 1508 1508 1510 1511 1511 1513 1513 1514 1515 1515 1516 1517 1518 1518 1519 1519 1519 1520 1520 1520 1520 1520 1520 1521 1521 1522 1522 1521 1522 1521 1522 1522 1522 1522 1522 1522 1521 1521 1521 1520 1520 1519 1518 1517 1516 1515 1515 1514 1514
1416 1420 1420 1421 1425 1426 1427 1429 1426 1427 1432 1430 1427 1430 1432 1432 1429 1428 1431 1439 1456 1470 1463 1448 1445 1461 1477 1471 1465 1469 1473 1484 1496 1500 1503 1504 1506 1509 1509 1511 1512 1512 1513 1514 1515 1516 1516 1517 1518 1519 1519 1519 1520 1520 1520 1521 1520 1520 1520 1520 1520 1520 1520 1520 1520 1520 1520 1520 1520 1520 1520 1520 1519 1519 1519 1519 1518 1518 1518 1517 1516 1515 1514 1513 1512 1512
1414 1419 1417 1415 1420 1423 1424 1426 1425 1424 1427 1431 1430 1432 1438 1439 1437 1437 1434 1443 1468 1476 1458 1445 1442 1452 1471 1472 1463 1465 1471 1481 1493 1498 1502 1505 1507 1509 1510 1511 1512 1513 1515 1516 1516 1517 1517 1519 1519 1519 1520 1520 1520 1521 1520 1521 1521 1520 1520 1519 1519 1519 1519 1519 1519 1519 1519 1519 1518 1518 1518 1518 1518 1518 1518 1517 1517 1517 1516 1515 1515 1514 1513 1512 1511 1510
1412 1413 1414 1413 1415 1417 1421 1425 1426 1425 1426 1431 1433 1435 1446 1452 1454 1453 1450 1456 1469 1467 1448 1440 1446 1455 1461 1463 1460 1462 1472 1482 1490 1495 1500 1504 1506 1508 1510 1512 1514 1515 1516 1517 1517 1518 1519 1519 1520 1520 1521 1521 1521 1522 1522 1521 1521 1521 1520 1519 1519 1519 1518 1518 1518 1518 1518 1518 1517 1517 1517 1517 1517 1516 1516 1516 1515 1515 1514 1514 1513 1512 1511 1510 1510 1509
1417 1414 1412 1412 1412 1412 1418 1423 1426 1425 1424 1429 1432 1436 1445 1454 1464 1465 1461 1465 1467 1460 1444 1436 1447 1457 1461 1472 1473 1466 1473 1483 1489 1496 1500 1504 1506 1507 1510 1513 1515 1516 1517 1519 1519 1520 1520 1520 1521 1521 1521 1522 1522 1522 1523 1522 1522 1521 1521 1520 1520 1519 1519 1518 1518 1517 1517 1517 1516 1517 1516 1516 1515 1515 1515 1514 1514 1513 1512 1512 1511 1510 1510 1510 1510 1509
1424 1422 1412 1409 1412 1415 1417 1416 1417 1420 1423 1426 1425 1428 1436 1441 1452 1459 1458 1463 1464 1457 1444 1439 1455 1469 1477 1490 1487 1475 1479 1486 1491 1498 1500 1505 1507 1508 1511 1514 1516 1518 1519 1520 1520 1520 1521 1521 1521 1522 1522 1523 1523 1523 1524 1523 1523 1522 1521 1521 1520 1520 1520 1519 1518 1517 1516 1516 1515 1515 1515 1514 1514 1513 1513 1513 1512 1511 1511 1510 1510 1509 1509 1509 1509 1509
1420 1419 1406 1405 1411 1415 1418 1413 1411 1419 1427 1426 1421 1424 1432 1430 1433 1442 1446 1446 1450 1452 1448 1456 1476 1486 1487 1492 1487 1484 1489 1491 1495 1500 1501 1506 1509 1509 1513 1516 1517 1520 1520 1521 1521 1521 1522 1522 1522 1523 1523 1524 1524 1524 1524 1524 1524 1523 1523 1522 1521 1521 1520 1518 1518 1517 1516 1516 1515 1514 1514 1513 1513 1512 1512 1512 1511 1510 1509 1509 1508 1508 1508 1508 1508 1508
1417 1414 1404 1408 1411 1410 1416 1414 1409 1417 1424 1424 1424 1424 1423 1419 1422 1438 1447 1442 1447 1458 1461 1471 1490 1494 1492 1495 1492 1491 1495 1495 1498 1501 1502 1507 1510 1511 1515 1517 1519 1520 1521 1521 1522 1522 1522 1522 1523 1524 1524 1525 1525 1525 1525 1525 1525 1525 1524 1523 1521 1520 1519 1518 1517 1517 1517 1516 1516 1514 1514 1513 1512 1512 1511 1511 1510 1509 1508 1508 1507 1507 1506 1506 1506 1506
1410 1412 1406 1409 1414 1410 1413 1415 1410 1409 1414 1421 1426 1420 1418 1421 1422 1433 1450 1453 1459 1466 1465 1472 1488 1493 1494 1498 1496 1493 1496 1499 1500 1501 1504 1507 1511 1514 1516 1518 1520 1520 1521 1522 1522 1522 1523 1523 1524 1525 1525 1526 1526 1525 1525 1526 1526 1525 1525 1523 1522 1520 1519 1518 1517 1517 1517 1517 1516 1515 1514 1513 1512 1511 1511 1510 1509 1508 1508 1507 1506 1505 1505 1504 1504 1504
1404 1413 1412 1408 1412 1411 1410 1417 1416 1410 1409 1414 1416 1413 1421 1435 1433 1433 1447 1457 1464 1465 1465 1474 1484 1483 1484 1490 1494 1493 1495 1499 1500 1502 1506 1508 1511 1515 1516 1519 1520 1520 1521 1522 1522 1523 1523 1524 1524 1525 1526 1526 1526 1526 1526 1526 1526 1525 1525 1525 1523 1521 1519 1519 1518 1518 1518 1517 1516 1515 1514 1513 1512 1511 1510 1510 1509 1508 1507 1507 1506 1505 1504 1503 1503 1503
1400 1412 1418 1409 1406 1409 1411 1417 1419 1415 1411 1409 1411 1413 1418 1427 1430 1432 1438 1446 1455 1458 1464 1480 1486 1478 1474 1478 1484 1487 1488 1494 1499 1502 1505 1507 1511 1514 1516 1519 1519 1520 1522 1522 1523 1524 1524 1524 1525 1525 1527 1527 1527 1527 1527 1527 1527 1526 1526 1526 1523 1521 1520 1520 1520 1520 1520 1518 1517 1516 1514 1513 1512 1511 1510 1509 1508 1507 1506 1506 1505 1505 1504 1503 1503 1502
1400 1408 1419 1414 1407 1410 1414 1414 1412 1411 1412 1413 1415 1419 1422 1422 1423 1427 1430 1431 1441 1449 1457 1474 1483 1477 1471 1471 1474 1479 1483 1489 1495 1500 1504 1507 1511 1514 1517 1519 1519 1520 1522 1523 1524 1525 1525 1525 1525 1526 1527 1527 1527 1528 1527 1527 1527 1527 1526 1526 1523 1521 1520 1521 1521 1522 1521 1520 1518 1517 1515 1514 1512 1511 1510 1509 1507 1506 1506 1505 1504 1504 1504 1503 1502 1501
1402 1406 1416 1418 1415 1415 1413 1407 1404 1404 1408 1412 1414 1416 1421 1423 1424 1433 1437 1429 1428 1438 1443 1455 1475 1480 1476 1472 1471 1475 1481 1486 1491 1498 1504 1507 1511 1514 1517 1518 1519 1521 1522 1524 1525 1525 1526 1525 1526 1527 1528 1528 1528 1528 1528 1528 1527 1527 1526 1525 1523 1522 1521 1522 1522 1523 1522 1521 1520 1518 1516 1515 1513 1511 1510 1508 1507 1505 1505 1504 1503 1503 1502 1502 1501 1501
1401 1406 1416 1420 1415 1412 1409 1405 1404 1403 1403 1409 1414 1414 1415 1418 1421 1432 1441 1433 1427 1433 1430 1439 1469 1484 1478 1473 1476 1479 1483 1488 1494 1498 1504 1509 1511 1514 1516 1517 1520 1522 1523 1525 1525 1526 1527 1526 1527 1528 1529 1529 1529 1529 1529 1528 1528 1528 1527 1525 1525 1524 1523 1523 1523 1524 1523 1522 1521 1519 1518 1516 1514 1511 1509 1507 1506 1504 1503 1503 1502 1501 1501 1500 1500 1499
1402 1408 1419 1426 1418 1410 1407 1407 1406 1405 1406 1410 1414 1413 1413 1415 1416 1420 1426 1425 1429 1434 1432 1446 1477 1488 1480 1477 1481 1484 1488 1493 1499 1502 1505 1510 1512 1514 1517 1518 1521 1523 1524 1525 1526 1527 1527 1527 1528 1529 1530 1530 1530 1530 1529 1529 1529 1529 1528 1527 1526 1525 1524 1524 1524 1525 1524 1523 1522 1520 1518 1516 1514 1512 1510 1507 1505 1504 1503 1502 1500 1499 1499 1498 1497 1497
1407 1410 1418 1430 1432 1426 1420 1416 1416 1414 1412 1412 1412 1411 1411 1410 1411 1416 1417 1422 1434 1435 1432 1455 1483 1486 1481 1482 1483 1486 1492 1496 1501 1505 1507 1510 1513 1515 1517 1520 1522 1524 1525 1526 1527 1528 1528 1528 1529 1530 1531 1531 1530 1530 1530 1529 1530 1529 1529 1528 1527 1526 1525 1525 1525 1525 1524 1524 1522 1520 1518 1516 1514 1512 1510 1507 1505 1503 1502 1501 1500 1498 1497 1496 1495 1495
1406 1409 1413 1424 1433 1434 1429 1424 1421 1417 1412 1410 1409 1410 1410 1407 1410 1417 1421 1430 1441 1436 1432 1455 1481 1486 1484 1486 1486 1489 1493 1497 1502 1506 1509 1511 1514 1516 1519 1521 1523 1523 1525 1526 1527 1528 1528 1529 1530 1530 1531 1531 1530 1531 1530 1530 1530 1530 1529 1529 1527 1527 1526 1525 1526 1525 1525 1524 1522 1520 1519 1516 1514 1512 1509 1507 1505 1503 1502 1500 1499 1498 1496 1495 1494 1494
1404 1408 1411 1415 1419 1421 1421 1415 1410 1410 1411 1412 1410 1409 1409 1409 1411 1415 1421 1432 1436 1434 1443 1459 1470 1482 1489 1488 1488 1492 1494 1499 1503 1506 1510 1513 1515 1518 1520 1522 1523 1524 1526 1527 1527 1528 1529 1529 1531 1531 1531 1531 1530 1531 1530 1530 1530 1530 1529 1528 1528 1528 1527 1526 1527 1526 1525 1524 1522 1520 1519 1517 1515 1512 1510 1507 1505 1503 1502 1500 1499 1498 1496 1495 1493 1493
1405 1411 1411 1411 1412 1412 1410 1405 1403 1407 1410 1410 1409 1409 1410 1412 1413 1415 1421 1427 1424 1434 1461 1470 1463 1473 1487 1487 1488 1493 1495 1499 1503 1506 1511 1514 1516 1519 1520 1521 1523 1524 1526 1527 1527 1529 1529 1530 1531 1531 1531 1531 1531 1531 1531 1531 1531 1530 1529 1529 1528 1528 1528 1527 1527 1526 1526 1525 1523 1521 1519 1518 1515 1513 1510 1508 1505 1503 1501 1500 1499 1497 1496 1494 1493 1492
1405 1411 1412 1412 1413 1411 1408 1403 1400 1402 1405 1406 1407 1409 1411 1413 1415 1416 1418 1421 1423 1437 1462 1471 1466 1472 1484 1488 1491 1494 1496 1500 1504 1508 1512 1515 1517 1519 1520 1522 1523 1524 1525 1527 1528 1529 1530 1531 1532 1531 1531 1531 1531 1531 1531 1531 1531 1530 1530 1529 1528 1528 1528 1528 1528 1527 1526 1525 1523 1522 1520 1518 1516 1513 1511 1508 1506 1504 1502 1500 1499 1497 1496 1494 1492 1491
1403 1411 1412 1413 1416 1415 1413 1409 1400 1399 1404 1408 1408 1408 1409 1413 1417 1420 1421 1424 1431 1442 1454 1465 1474 1481 1487 1490 1493 1496 1498 1502 1506 1510 1513 1515 1517 1519 1520 1522 1523 1524 1526 1527 1529 1531 1531 1532 1532 1532 1531 1531 1531 1532 1532 1532 1532 1531 1531 1530 1530 1529 1529 1529 1529 1528 1527 1526 1524 1523 1521 1519 1517 1514 1511 1509 1507 1505 1502 1501 1499 1498 1496 1495 1493 1491
1406 1415 1413 1414 1423 1424 1420 1413 1404 1402 1406 1409 1412 1414 1415 1417 1423 1429 1432 1433 1438 1448 1457 1467 1480 1490 1493 1494 1496 1499 1502 1505 1508 1512 1514 1516 1517 1518 1520 1522 1523 1524 1527 1528 1530 1532 1532 1532 1532 1532 1531 1531 1532 1532 1532 1532 1532 1532 1532 1531 1531 1531 1531 1531 1530 1528 1528 1526 1525 1523 1521 1519 1517 1515 1513 1510 1508 1506 1504 1502 1500 1498 1497 1495 1493 1491
1409 1420 1418 1417 1429 1432 1423 1418 1414 1410 1412 1419 1428 1434 1432 1429 1432 1434 1436 1437 1441 1453 1465 1472 1481 1491 1495 1496 1499 1502 1505 1507 1509 1512 1514 1516 1518 1519 1520 1522 1524 1526 1528 1530 1532 1532 1533 1533 1532 1532 1532 1532 1532 1533 1533 1533 1533 1533 1533 1533 1532 1532 1532 1532 1530 1529 1529 1527 1525 1524 1522 1520 1518 1516 1514 1512 1510 1508 1505 1503 1501 1499 1497 1495 1493 1492
1409 1421 1423 1421 1430 1430 1423 1428 1429 1421 1424 1437 1445 1446 1441 1438 1439 1440 1441 1443 1446 1454 1463 1469 1477 1488 1493 1495 1500 1504 1506 1509 1511 1513 1515 1517 1518 1520 1522 1523 1525 1528 1529 1531 1532 1533 1533 1533 1532 1532 1533 1533 1534 1534 1534 1534 1534 1534 1534 1534 1534 1534 1534 1533 1531 1531 1530 1528 1526 1525 1523 1521 1519 1517 1516 1513 1511 1509 1507 1504 1502 1500 1498 1497 1495 1493
1410 1419 1423 1422 1427 1430 1430 1438 1442 1435 1438 1450 1450 1444 1442 1443 1446 1451 1455 1458 1459 1459 1459 1464 1475 1487 1493 1496 1499 1504 1508 1510 1512 1514 1517 1518 1519 1521 1523 1525 1527 1529 1531 1532 1533 1533 1533 1533 1533 1533 1534 1534 1535 1534 1534 1535 1535 1534 1535 1535 1534 1534 1535 1534 1533 1532 1531 1529 1528 1526 1524 1522 1520 1519 1517 1515 1513 1511 1508 1506 1504 1502 1500 1498 1496 1494
1412 1418 1425 1426 1427 1435 1444 1449 1450 1450 1452 1454 1448 1441 1442 1447 1450 1456 1462 1465 1467 1467 1466 1471 1481 1488 1493 1497 1501 1505 1509 1511 1513 1516 1518 1520 1521 1522 1524 1527 1529 1530 1532 1532 1533 1534 1534 1534 1534 1534 1534 1535 1535 1534 1534 1535 1534 1534 1535 1536 1535 1535 1536 1535 1534 1533 1532 1531 1529 1527 1525 1523 1522 1520 1519 1517 1515 1513 1510 1508 1506 1504 1502 1500 1498 1496
1411 1416 1425 1432 1434 1442 1451 1453 1453 1458 1458 1453 1448 1446 1447 1451 1455 1461 1469 1472 1473 1474 1474 1477 1485 1490 1494 1500 1503 1506 1509 1512 1514 1518 1520 1521 1523 1524 1525 1528 1529 1531 1532 1533 1534 1534 1534 1535 1535 1535 1535 1535 1536 1536 1535 1534 1534 1535 1536 1536 1536 1536 1537 1536 1535 1534 1533 1532 1531 1529 1527 1525 1523 1522 1520 1518 1517 1515 1513 1511 1509 1507 1505 1503 1500 1498
1408 1412 1421 1435 1443 1445 1451 1457 1459 1461 1460 1455 1453 1450 1449 1453 1454 1460 1473 1481 1478 1478 1480 1482 1488 1494 1497 1501 1504 1507 1509 1511 1516 1521 1523 1524 1525 1526 1527 1529 1531 1532 1533 1534 1535 1535 1535 1535 1535 1536 1536 1537 1537 1537 1537 1537 1537 1537 1538 1538 1538 1538 1538 1537 1536 1535 1534 1533 1532 1530 1529 1526 1525 1523 1522 1520 1519 1517 1515 1514 1512 1510 1507 1505 1503 1500
1405 1410 1415 1430 1442 1443 1448 1458 1460 1459 1457 1456 1454 1451 1449 1453 1454 1456 1471 1485 1484 1482 1486 1488 1490 1495 1498 1500 1504 1506 1506 1510 1518 1524 1525 1525 1526 1527 1528 1530 1532 1533 1534 1535 1535 1535 1536 1536 1536 1537 1538 1538 1538 1538 1538 1538 1539 1539 1539 1540 1540 1540 1539 1538 1537 1537 1535 1535 1533 1532 1530 1528 1526 1525 1523 1522 1521 1519 1518 1516 1514 1512 1510 1507 1505 1503
1404 1410 1413 1421 1433 1437 1440 1449 1454 1456 1455 1451 1450 1451 1451 1453 1455 1455 1467 1483 1487 1485 1488 1491 1492 1495 1497 1500 1502 1503 1503 1510 1519 1524 1524 1526 1527 1528 1529 1531 1532 1534 1535 1536 1536 1537 1537 1538 1538 1539 1539 1539 1539 1540 1540 1540 1540 1540 1540 1541 1541 1540 1540 1539 1539 1538 1537 1536 1535 1534 1532 1530 1528 1527 1525 1524 1522 1521 1519 1518 1516 1514 1512 1510 1508 1505
1408 1413 1417 1422 1428 1431 1436 1446 1454 1459 1457 1449 1448 1452 1452 1453 1458 1460 1465 1475 1482 1485 1488 1490 1492 1495 1497 1500 1502 1501 1502 1507 1514 1520 1523 1525 1527 1528 1530 1531 1533 1534 1536 1537 1537 1538 1539 1539 1540 1540 1540 1540 1541 1541 1541 1541 1541 1541 1541 1541 1541 1541 1541 1541 1540 1539 1539 1538 1536 1535 1534 1532 1531 1529 1527 1526 1524 1523 1521 1519 1518 1516 1514 1512 1510 1508
1418 1418 1419 1423 1426 1429 1438 1450 1457 1460 1458 1452 1450 1452 1453 1455 1460 1463 1463 1468 1475 1483 1487 1489 1492 1495 1498 1500 1501 1502 1502 1505 1510 1517 1522 1525 1527 1529 1530 1532 1534 1535 1536 1537 1538 1539 1540 1541 1541 1541 1541 1542 1542 1542 1542 1542 1542 1542 1542 1542 1542 1542 1542 1542 1542 1541 1540 1539 1538 1537 1535 1533 1532 1531 1530 1529 1527 1525 1523 1520 1519 1518 1516 1514 1512 1510
1426 1421 1420 1423 1425 1427 1437 1448 1456 1460 1460 1455 1452 1453 1455 1458 1462 1464 1465 1469 1475 1480 1485 1489 1492 1495 1498 1500 1501 1503 1505 1508 1513 1518 1522 1526 1528 1529 1531 1532 1534 1536 1537 1538 1539 1540 1541 1542 1542 1542 1543 1543 1543 1543 1543 1544 1544 1543 1543 1543 1543 1543 1543 1543 1542 1542 1541 1540 1539 1538 1536 1535 1534 1533 1532 1530 1529 1526 1524 1522 1520 1519 1517 1515 1513 1511
1429 1428 1429 1433 1433 1433 1439 1449 1456 1460 1459 1455 1455 1456 1456 1460 1464 1466 1469 1473 1478 1481 1485 1489 1492 1495 1498 1500 1502 1505 1508 1511 1516 1520 1523 1526 1528 1530 1532 1533 1534 1536 1537 1538 1540 1541 1541 1542 1543 1543 1543 1544 1544 1544 1544 1545 1545 1544 1544 1544 1544 1544 1544 1544 1543 1543 1542 1541 1540 1539 1538 1537 1536 1535 1534 1532 1530 1528 1526 1524 1522 1520 1518 1517 1515 1512
1432 1432 1436 1443 1443 1439 1444 1453 1457 1457 1457 1455 1457 1458 1459 1462 1466 1468 1470 1473 1479 1483 1486 1489 1493 1496 1498 1500 1503 1507 1510 1513 1518 1521 1523 1526 1529 1531 1532 1534 1535 1536 1538 1539 1540 1541 1542 1543 1544 1544 1544 1545 1545 1545 1545 1546 1546 1546 1546 1546 1546 1545 1545 1544 1544 1543 1543 1542 1541 1540 1540 1539 1538 1537 1535 1534 1532 1530 1528 1526 1524 1522 1520 1518 1516 1514
1439 1435 1436 1445 1451 1449 1451 1457 1458 1457 1458 1459 1459 1461 1463 1465 1468 1471 1472 1474 1479 1485 1488 1490 1494 1497 1499 1501 1504 1508 1512 1515 1518 1522 1524 1527 1529 1531 1533 1535 1536 1537 1538 1540 1541 1542 1543 1544 1544 1545 1545 1546 1546 1546 1547 1547 1547 1547 1547 1547 1547 1546 1546 1545 1545 1544 1544 1543 1543 1542 1541 1540 1539 1538 1537 1536 1535 1532 1530 1528 1526 1524 1522 1520 1518 1516
1441 1438 1437 1446 1454 1455 1458 1461 1460 1459 1462 1463 1463 1465 1466 1469 1472 1473 1475 1479 1482 1486 1490 1492 1495 1498 1501 1504 1506 1509 1514 1517 1519 1522 1525 1528 1530 1532 1534 1535 1537 1538 1539 1540 1542 1543 1544 1544 1545 1545 1546 1547 1547 1547 1548 1548 1548 1548 1548 1548 1548 1547 1547 1547 1546 1546 1545 1545 1544 1543 1542 1541 1540 1539 1538 1537 1536 1534 1533 1530 1528 1527 1525 1523 1521 1519
1435 1436 1437 1444 1451 1456 1462 1465 1463 1463 1465 1466 1467 1469 1471 1473 1476 1477 1480 1483 1486 1489 1492 1494 1497 1500 1503 1506 1507 1510 1515 1518 1520 1523 1526 1528 1531 1533 1534 1536 1537 1539 1540 1541 1543 1544 1545 1545 1546 1546 1547 1548 1548 1549 1549 1549 1549 1549 1549 1549 1549 1549 1548 1548 1547 1547 1546 1546 1545 1545 1543 1542 1541 1540 1539 1538 1537 1536 1534 1533 1531 1529 1527 1525 1523 1521
1433 1435 1439 1445 1451 1456 1463 1466 1465 1466 1469 1469 1470 1473 1474 1477 1480 1481 1484 1486 1488 1491 1495 1497 1500 1502 1505 1508 1510 1512 1515 1519 1521 1524 1526 1529 1531 1533 1535 1537 1538 1540 1541 1542 1543 1545 1545 1546 1546 1547 1548 1549 1549 1550 1550 1550 1550 1550 1551 1551 1551 1550 1550 1549 1548 1548 1547 1547 1546 1546 1545 1544 1542 1540 1539 1539 1538 1537 1536 1534 1532 1530 1529 1527 1525 1523
1431 1437 1443 1450 1457 1462 1465 1466 1466 1469 1472 1472 1474 1476 1477 1479 1482 1484 1487 1489 1491 1494 1497 1499 1502 1504 1506 1509 1512 1513 1516 1520 1522 1524 1527 1529 1532 1534 1536 1537 1539 1540 1542 1543 1544 1545 1546 1546 1547 1548 1549 1550 1551 1551 1552 1552 1552 1552 1552 1552 1552 1551 1551 1550 1550 1549 1549 1548 1547 1546 1546 1545 1544 1542 1541 1539 1539 1538 1537 1536 1534 1533 1531 1530 1528 1526
1434 1442 1447 1452 1460 1464 1465 1465 1466 1469 1472 1475 1477 1478 1480 1482 1484 1486 1489 1491 1493 1495 1497 1500 1504 1507 1509 1511 1514 1515 1517 1520 1523 1526 1528 1530 1532 1534 1536 1538 1540 1541 1543 1544 1545 1546 1546 1547 1548 1549 1550 1551 1552 1552 1553 1553 1553 1553 1553 1553 1553 1552 1551 1551 1551 1550 1550 1549 1548 1548 1547 1546 1545 1544 1543 1542 1540 1539 1538 1537 1537 1535 1533 1532 1531 1529
1439 1442 1443 1447 1454 1459 1461 1463 1466 1468 1471 1475 1478 1480 1483 1485 1486 1488 1491 1493 1495 1497 1498 1500 1503 1507 1510 1513 1516 1518 1519 1521 1524 1527 1528 1531 1534 1535 1537 1539 1540 1542 1543 1544 1545 1546 1547 1548 1549 1550 1551 1552 1553 1553 1554 1554 1555 1555 1555 1555 1554 1553 1553 1552 1552 1551 1551 1550 1549 1549 1548 1547 1546 1546 1545 1544 1542 1541 1540 1539 1538 1537 1535 1534 1533 1531